Weather History for Barksdale AFB, LA

Change the Weather History Date:

Saturday, November 17, 2012

  Actual Average Record
Temperature  
Mean Temperature 50 °F -  
Max Temperature 67 °F 63 °F 83 °F (2013)
Min Temperature 33 °F 44 °F 23 °F (1997)
Degree Days  
Heating Degree Days 15    
Moisture  
Dew Point 34 °F    
Average Humidity 63    
Maximum Humidity 85    
Minimum Humidity 24    
Precipitation  
Precipitation 10.31 in - - ()
Sea Level Pressure  
Sea Level Pressure 30.37 in    
Wind  
Wind Speed 2 mph (NNE)    
Max Wind Speed 6 mph    
Max Gust Speed -    
Visibility 9 miles    
Events      
Averages and records for this station are not official NWS values.
T = Trace of Precipitation, MM = Missing Value Source: NWS Daily Summary

Daily Weather History Graph

Daily Weather History Graph

Search for Another Location

Airport:

Trip Planner

Search our weather history database for the weather conditions in past years. The results will help you decide how hot, cold, wet, or windy it might be!

Date:

Astronomy

Nov. 17, 2012 Rise Set
Actual Time 6:46 AM CST 5:12 PM CST
Civil Twilight 6:20 AM CST 5:38 PM CST
Nautical Twilight 5:50 AM CST 6:08 PM CST
Astronomical Twilight 5:21 AM CST 6:37 PM CST
Moon 10:31 AM CST (11/17) 9:22 PM CST (11/17)
Length of Visible Light 11h 18m
Length of Day
10h 26m
Waxing Crescent, 20% of the Moon is Illuminated
Nov 17
Waxing Crescent
Nov 20
First Quarter
Nov 28
Full
Dec 6
Last Quarter
Dec 13
New

Hourly Weather History & Observations

Time (CST) Temp. Windchill Dew Point Humidity Pressure Visibility Wind Dir Wind Speed Gust Speed Precip Events Conditions
12:55 AM 39.7 °F 37.6 °F 31.5 °F 72% 30.38 in 10.0 mi NNW 3.5 mph - N/A   Clear
1:55 AM 36.3 °F 33.7 °F 30.2 °F 78% 30.38 in 10.0 mi North 3.5 mph - N/A   Clear
2:55 AM 36.5 °F - 31.1 °F 81% 30.38 in 10.0 mi Calm Calm - N/A   Clear
3:55 AM 35.6 °F - 31.3 °F 84% 30.38 in 10.0 mi Calm Calm - N/A   Clear
4:55 AM 34.9 °F - 30.0 °F 82% 30.38 in 10.0 mi Calm Calm - N/A   Clear
5:55 AM 33.6 °F 30.6 °F 29.3 °F 84% 30.39 in 10.0 mi North 3.5 mph - N/A   Clear
6:55 AM 33.8 °F - 29.7 °F 85% 30.40 in 10.0 mi Calm Calm - N/A   Clear
7:55 AM 37.2 °F - 32.7 °F 84% 30.42 in 10.0 mi Calm Calm - N/A   Clear
8:55 AM 45.1 °F 43.7 °F 36.0 °F 70% 30.43 in 10.0 mi NNW 3.5 mph - N/A   Clear
9:55 AM 53.1 °F - 36.9 °F 54% 30.43 in 10.0 mi Calm Calm - N/A   Clear
10:55 AM 58.5 °F - 35.6 °F 42% 30.44 in 10.0 mi Variable 4.6 mph - N/A   Clear
11:55 AM 62.1 °F - 31.8 °F 32% 30.40 in 10.0 mi Variable 3.5 mph - N/A   Clear
12:55 PM 64.4 °F - 31.3 °F 29% 30.37 in 7.0 mi NNE 5.8 mph - N/A   Clear
1:55 PM 66.7 °F - 30.2 °F 26% 30.35 in 7.0 mi Calm Calm - N/A   Clear
2:55 PM 67.8 °F - 30.0 °F 24% 30.33 in 10.0 mi NE 3.5 mph - N/A   Clear
3:55 PM 67.5 °F - 30.7 °F 25% 30.32 in 10.0 mi ESE 3.5 mph - N/A   Clear
4:55 PM 63.5 °F - 31.5 °F 30% 30.32 in 10.0 mi Calm Calm - N/A   Clear
5:55 PM 55.0 °F - 36.0 °F 49% 30.32 in 10.0 mi ENE 3.5 mph - N/A   Clear
6:33 PM 50.0 °F - 37.4 °F 62% 30.32 in 6.0 mi Calm Calm - N/A   Haze
6:47 PM 50.0 °F - 37.4 °F 62% 30.33 in 9.0 mi Calm Calm - N/A   Clear
6:55 PM 48.4 °F - 37.8 °F 67% 30.33 in 10.0 mi Calm Calm - N/A   Clear
7:55 PM 46.8 °F - 38.7 °F 73% 30.35 in 10.0 mi Calm Calm - N/A   Clear
8:52 PM 44.6 °F - 37.4 °F 76% 30.35 in 7.0 mi Calm Calm - N/A   Clear
8:53 PM 44.6 °F - 37.4 °F 76% 30.35 in 7.0 mi Calm Calm - N/A   Clear
8:55 PM 44.1 °F - 37.8 °F 78% 30.35 in 7.0 mi Calm Calm - N/A   Clear
9:55 PM 43.0 °F - 37.4 °F 81% 30.35 in 10.0 mi Calm Calm - N/A   Clear
10:55 PM 41.9 °F - 36.9 °F 82% 30.35 in 10.0 mi Calm Calm - N/A   Clear
11:55 PM 43.0 °F - 36.5 °F 78% 30.35 in 10.0 mi Calm Calm - N/A   Clear